sat.trackr.live / text

‹ back to catalog

STARLINK-33620

NORAD 63069 · 2025-035T

PAYLOAD ACTIVE UNKNOWN

§ Identity

Operator
Country
US
Launch date
2025-02-21
Launch site
AFETR
Launch vehicle
Mass (kg)
RCS (m²)

Purposes: comms

External: N2YO · Heavens-Above · Gunter

§ Orbital elements

Epoch: 2026-09-20T07:25:42.827808Z

Period
94.27 min
Inclination
43.0026°
Eccentricity
0.0001835
Mean motion
15.27594229 rev/d
Perigee alt
481.7 km
Apogee alt
484.3 km
Semi-major
6,861.1 km
B*
4.0480e-4
RAAN
128.0205°
Arg perigee
264.4658°
Mean anomaly
95.5984°
Rev number
8,948

§ Raw data

STARLINK-336201 63069U 25035T   26263.30952347  .00010898  00000+0  40480-3 0  99952 63069  43.0026 128.0205 0001835 264.4658  95.5984 15.27594229 89486

JSON: /api/v1/satellites/63069 · /tle

For live sub-satellite position, see the globe view (requires WebGL).

§ Visibility from observer

Set your observer location to see the next 7 days of passes ≥ 10°. The values pass through the URL so the page stays shareable.

No JS? Fill the form by hand. The geolocation button needs JavaScript.